owner,sensor,date,latitude,longitude,vertical_datum,direction_of_sea_water_velocity,sea_water_speed,upward_sea_water_velocity,qcFlag 
TABS,ioos:station:wmo:42050:1,2008-08-01T00:00:00Z,28.8425,-94.2433,2.0,245.3849513,24.44096561,-99999.0,'11111222,11111222,99999999' 
TABS,ioos:station:wmo:42050:1,2008-08-01T00:30:00Z,28.8425,-94.2433,2.0,255.1864756,28.08335628,-99999.0,'11111222,11111222,99999999' 
TABS,ioos:station:wmo:42050:1,2008-08-01T01:00:00Z,28.8425,-94.2433,2.0,264.4898424,28.95377005,-99999.0,'11111222,11111222,99999999' 
TABS,ioos:station:wmo:42050:1,2008-08-01T01:30:00Z,28.8425,-94.2433,2.0,268.1281228,13.1670232,-99999.0,'11111222,11111222,99999999' 
TABS,ioos:station:wmo:42050:1,2008-08-01T02:00:00Z,28.8425,-94.2433,2.0,281.1377776,24.74604615,-99999.0,'11111222,11111222,99999999' 
TABS,ioos:station:wmo:42050:1,2008-08-01T02:30:00Z,28.8425,-94.2433,2.0,284.5418031,32.45980437,-99999.0,'11111222,11111222,99999999' 
TABS,ioos:station:wmo:42050:1,2008-08-01T03:00:00Z,28.8425,-94.2433,2.0,289.8754882,35.35594575,-99999.0,'11111222,11111222,99999999' 
TABS,ioos:station:wmo:42050:1,2008-08-01T03:30:00Z,28.8425,-94.2433,2.0,292.6328273,31.49538538,-99999.0,'11111222,11111222,99999999' 
TABS,ioos:station:wmo:42050:1,2008-08-01T04:00:00Z,28.8425,-94.2433,2.0,301.8302926,33.57983026,-99999.0,'11111222,11111222,99999999' 
TABS,ioos:station:wmo:42050:1,2008-08-01T04:30:00Z,28.8425,-94.2433,2.0,307.2423671,32.94869497,-99999.0,'11111222,11111222,99999999' 
TABS,ioos:station:wmo:42050:1,2008-08-01T05:00:00Z,28.8425,-94.2433,2.0,314.6216887,33.17110339,-99999.0,'11111222,11111222,99999999' 
TABS,ioos:station:wmo:42050:1,2008-08-01T05:30:00Z,28.8425,-94.2433,2.0,317.1964881,33.95192189,-99999.0,'11111222,11111222,99999999' 
TABS,ioos:station:wmo:42050:1,2008-08-01T06:00:00Z,28.8425,-94.2433,2.0,328.6729254,31.88908904,-99999.0,'11111222,11111222,99999999' 
TABS,ioos:station:wmo:42050:1,2008-08-01T06:30:00Z,28.8425,-94.2433,2.0,329.3709526,29.08837053,-99999.0,'11111222,11111222,99999999' 
TABS,ioos:station:wmo:42050:1,2008-08-01T07:00:00Z,28.8425,-94.2433,2.0,331.9990453,29.79825834,-99999.0,'11111222,11111222,99999999' 
TABS,ioos:station:wmo:42050:1,2008-08-01T07:30:00Z,28.8425,-94.2433,2.0,339.7873819,28.33499956,-99999.0,'11111222,11111222,99999999' 
TABS,ioos:station:wmo:42050:1,2008-08-01T08:00:00Z,28.8425,-94.2433,2.0,339.9677784,26.76959843,-99999.0,'11111222,11111222,99999999' 
TABS,ioos:station:wmo:42050:1,2008-08-01T08:30:00Z,28.8425,-94.2433,2.0,10.96138604,22.87737092,-99999.0,'11111222,11111222,99999999' 
TABS,ioos:station:wmo:42050:1,2008-08-01T09:00:00Z,28.8425,-94.2433,2.0,27.20642797,25.17522989,-99999.0,'11111222,11111222,99999999' 
TABS,ioos:station:wmo:42050:1,2008-08-01T09:30:00Z,28.8425,-94.2433,2.0,39.09397793,21.02783869,-99999.0,'11111222,11111222,99999999' 
TABS,ioos:station:wmo:42050:1,2008-08-01T10:00:00Z,28.8425,-94.2433,2.0,46.34347549,16.89035228,-99999.0,'11111222,11111222,99999999' 
TABS,ioos:station:wmo:42050:1,2008-08-01T10:30:00Z,28.8425,-94.2433,2.0,59.50315895,13.89184653,-99999.0,'11111222,11111222,99999999' 
TABS,ioos:station:wmo:42050:1,2008-08-01T11:00:00Z,28.8425,-94.2433,2.0,62.71140456,6.019975083,-99999.0,'11133222,11111222,99999999' 
TABS,ioos:station:wmo:42050:1,2008-08-01T11:30:00Z,28.8425,-94.2433,2.0,74.98167449,11.88599176,-99999.0,'11111222,11111222,99999999' 
TABS,ioos:station:wmo:42050:1,2008-08-01T12:00:00Z,28.8425,-94.2433,2.0,90.51554378,16.67067485,-99999.0,'11111222,11111222,99999999' 
TABS,ioos:station:wmo:42050:1,2008-08-01T12:30:00Z,28.8425,-94.2433,2.0,106.7901318,13.88179383,-99999.0,'11111222,11111222,99999999' 
TABS,ioos:station:wmo:42050:1,2008-08-01T13:00:00Z,28.8425,-94.2433,2.0,103.6608234,12.95653117,-99999.0,'11111222,11111222,99999999' 
TABS,ioos:station:wmo:42050:1,2008-08-01T13:30:00Z,28.8425,-94.2433,2.0,108.6130935,11.18503017,-99999.0,'11111222,11111222,99999999' 
TABS,ioos:station:wmo:42050:1,2008-08-01T14:00:00Z,28.8425,-94.2433,2.0,112.4364539,11.0569797,-99999.0,'11111222,11111222,99999999' 
TABS,ioos:station:wmo:42050:1,2008-08-01T14:30:00Z,28.8425,-94.2433,2.0,107.2281914,11.41202874,-99999.0,'11111222,11111222,99999999' 
TABS,ioos:station:wmo:42050:1,2008-08-01T15:00:00Z,28.8425,-94.2433,2.0,109.8126577,10.91617607,-99999.0,'11111222,11111222,99999999' 
TABS,ioos:station:wmo:42050:1,2008-08-01T15:30:00Z,28.8425,-94.2433,2.0,103.8029642,8.340869259,-99999.0,'11133222,11111222,99999999' 
TABS,ioos:station:wmo:42050:1,2008-08-01T16:00:00Z,28.8425,-94.2433,2.0,126.7564671,6.066011869,-99999.0,'11133222,11111222,99999999' 
TABS,ioos:station:wmo:42050:1,2008-08-01T16:30:00Z,28.8425,-94.2433,2.0,124.9082585,5.609286942,-99999.0,'11133222,11111222,99999999' 
TABS,ioos:station:wmo:42050:1,2008-08-01T17:00:00Z,28.8425,-94.2433,2.0,120.1771376,3.123283529,-99999.0,'11133222,11111222,99999999' 
TABS,ioos:station:wmo:42050:1,2008-08-01T17:30:00Z,28.8425,-94.2433,2.0,116.2569509,4.159146547,-99999.0,'11133222,11111222,99999999' 
TABS,ioos:station:wmo:42050:1,2008-08-01T18:00:00Z,28.8425,-94.2433,2.0,164.8567683,3.138996655,-99999.0,'11133222,11111222,99999999' 
TABS,ioos:station:wmo:42050:1,2008-08-01T18:30:00Z,28.8425,-94.2433,2.0,252.9916719,7.111005555,-99999.0,'11133222,11111222,99999999' 
TABS,ioos:station:wmo:42050:1,2008-08-01T19:00:00Z,28.8425,-94.2433,2.0,240.7875944,7.069045197,-99999.0,'11133222,11111222,99999999' 
TABS,ioos:station:wmo:42050:1,2008-08-01T19:30:00Z,28.8425,-94.2433,2.0,242.2140606,9.867770772,-99999.0,'11133222,11111222,99999999' 
TABS,ioos:station:wmo:42050:1,2008-08-01T20:00:00Z,28.8425,-94.2433,2.0,232.9583643,14.70806581,-99999.0,'11111222,11111222,99999999' 
TABS,ioos:station:wmo:42050:1,2008-08-01T20:30:00Z,28.8425,-94.2433,2.0,209.0704449,13.80974294,-99999.0,'11111222,11111222,99999999' 
TABS,ioos:station:wmo:42050:1,2008-08-01T21:00:00Z,28.8425,-94.2433,2.0,219.5114463,15.23018713,-99999.0,'11111222,11111222,99999999' 
TABS,ioos:station:wmo:42050:1,2008-08-01T21:30:00Z,28.8425,-94.2433,2.0,223.708542,17.88727201,-99999.0,'11111222,11111222,99999999' 
TABS,ioos:station:wmo:42050:1,2008-08-01T22:00:00Z,28.8425,-94.2433,2.0,213.9368782,19.93611045,-99999.0,'11111222,11111222,99999999' 
TABS,ioos:station:wmo:42050:1,2008-08-01T22:30:00Z,28.8425,-94.2433,2.0,212.8844708,20.72009894,-99999.0,'11111222,11111222,99999999' 
TABS,ioos:station:wmo:42050:1,2008-08-01T23:00:00Z,28.8425,-94.2433,2.0,206.421659,21.48420815,-99999.0,'11111222,11111222,99999999' 
TABS,ioos:station:wmo:42050:1,2008-08-01T23:30:00Z,28.8425,-94.2433,2.0,209.5942794,21.74708486,-99999.0,'11111222,11111222,99999999' 
TABS,ioos:station:wmo:42050:1,2008-08-02T00:00:00Z,28.8425,-94.2433,2.0,216.4137701,22.87672398,-99999.0,'11111222,11111222,99999999' 
TABS,ioos:station:wmo:42050:1,2008-08-02T00:30:00Z,28.8425,-94.2433,2.0,221.0946172,26.06082309,-99999.0,'11111222,11111222,99999999' 
TABS,ioos:station:wmo:42050:1,2008-08-02T01:00:00Z,28.8425,-94.2433,2.0,232.665679,19.5066399,-99999.0,'11111222,11111222,99999999' 
TABS,ioos:station:wmo:42050:1,2008-08-02T01:30:00Z,28.8425,-94.2433,2.0,224.8549986,5.600303563,-99999.0,'11133222,11111222,99999999' 
TABS,ioos:station:wmo:42050:1,2008-08-02T02:00:00Z,28.8425,-94.2433,2.0,240.5027989,18.62398991,-99999.0,'11111222,11111222,99999999' 
TABS,ioos:station:wmo:42050:1,2008-08-02T02:30:00Z,28.8425,-94.2433,2.0,251.7381024,19.84970781,-99999.0,'11111222,11111222,99999999' 
TABS,ioos:station:wmo:42050:1,2008-08-02T03:00:00Z,28.8425,-94.2433,2.0,264.4444178,17.97441793,-99999.0,'11111222,11111222,99999999' 
TABS,ioos:station:wmo:42050:1,2008-08-02T03:30:00Z,28.8425,-94.2433,2.0,278.3245119,17.95920098,-99999.0,'11111222,11111222,99999999' 
TABS,ioos:station:wmo:42050:1,2008-08-02T04:00:00Z,28.8425,-94.2433,2.0,288.8158424,19.99868496,-99999.0,'11111222,11111222,99999999' 
TABS,ioos:station:wmo:42050:1,2008-08-02T04:30:00Z,28.8425,-94.2433,2.0,301.2554363,20.23709465,-99999.0,'11111222,11111222,99999999' 
TABS,ioos:station:wmo:42050:1,2008-08-02T05:00:00Z,28.8425,-94.2433,2.0,307.9459087,15.66075988,-99999.0,'11111222,11111222,99999999' 
TABS,ioos:station:wmo:42050:1,2008-08-02T05:30:00Z,28.8425,-94.2433,2.0,315.7042696,17.84165071,-99999.0,'11111222,11111222,99999999' 
TABS,ioos:station:wmo:42050:1,2008-08-02T06:00:00Z,28.8425,-94.2433,2.0,318.6636345,18.59247159,-99999.0,'11111222,11111222,99999999' 
TABS,ioos:station:wmo:42050:1,2008-08-02T06:30:00Z,28.8425,-94.2433,2.0,330.7835858,19.91338243,-99999.0,'11111222,11111222,99999999' 
TABS,ioos:station:wmo:42050:1,2008-08-02T07:00:00Z,28.8425,-94.2433,2.0,336.6815577,18.16365877,-99999.0,'11111222,11111222,99999999' 
TABS,ioos:station:wmo:42050:1,2008-08-02T07:30:00Z,28.8425,-94.2433,2.0,339.4597185,17.2998526,-99999.0,'11111222,11111222,99999999' 
TABS,ioos:station:wmo:42050:1,2008-08-02T08:00:00Z,28.8425,-94.2433,2.0,352.1935552,16.78556821,-99999.0,'11111222,11111222,99999999' 
TABS,ioos:station:wmo:42050:1,2008-08-02T08:30:00Z,28.8425,-94.2433,2.0,351.0980544,14.79826003,-99999.0,'11111222,11111222,99999999' 
TABS,ioos:station:wmo:42050:1,2008-08-02T09:00:00Z,28.8425,-94.2433,2.0,9.094312242,11.7679225,-99999.0,'11111222,11111222,99999999' 
TABS,ioos:station:wmo:42050:1,2008-08-02T09:30:00Z,28.8425,-94.2433,2.0,357.9568322,10.09642016,-99999.0,'11111222,11111222,99999999' 
TABS,ioos:station:wmo:42050:1,2008-08-02T10:00:00Z,28.8425,-94.2433,2.0,30.86877185,6.197967409,-99999.0,'11133222,11111222,99999999' 
TABS,ioos:station:wmo:42050:1,2008-08-02T10:30:00Z,28.8425,-94.2433,2.0,94.08560723,5.333554162,-99999.0,'11133222,11111222,99999999' 
TABS,ioos:station:wmo:42050:1,2008-08-02T11:00:00Z,28.8425,-94.2433,2.0,132.1941154,6.789293041,-99999.0,'11133222,11111222,99999999' 
TABS,ioos:station:wmo:42050:1,2008-08-02T11:30:00Z,28.8425,-94.2433,2.0,122.3051905,3.442920272,-99999.0,'11133222,11111222,99999999' 
TABS,ioos:station:wmo:42050:1,2008-08-02T12:00:00Z,28.8425,-94.2433,2.0,154.9022048,4.715177621,-99999.0,'11133222,11111222,99999999' 
TABS,ioos:station:wmo:42050:1,2008-08-02T12:30:00Z,28.8425,-94.2433,2.0,158.7239717,10.52751158,-99999.0,'11111222,11111222,99999999' 
TABS,ioos:station:wmo:42050:1,2008-08-02T13:00:00Z,28.8425,-94.2433,2.0,162.1186909,14.39536036,-99999.0,'11111222,11111222,99999999' 
TABS,ioos:station:wmo:42050:1,2008-08-02T13:30:00Z,28.8425,-94.2433,2.0,167.0078055,16.50243921,-99999.0,'11111222,11111222,99999999' 
TABS,ioos:station:wmo:42050:1,2008-08-02T14:00:00Z,28.8425,-94.2433,2.0,170.2770822,16.63899336,-99999.0,'11111222,11111222,99999999' 
TABS,ioos:station:wmo:42050:1,2008-08-02T14:30:00Z,28.8425,-94.2433,2.0,163.3255294,17.60005966,-99999.0,'11111222,11111222,99999999' 
TABS,ioos:station:wmo:42050:1,2008-08-02T15:00:00Z,28.8425,-94.2433,2.0,154.3761547,15.51593375,-99999.0,'11111222,11111222,99999999' 
TABS,ioos:station:wmo:42050:1,2008-08-02T15:30:00Z,28.8425,-94.2433,2.0,167.4958359,12.51688859,-99999.0,'11111222,11111222,99999999' 
TABS,ioos:station:wmo:42050:1,2008-08-02T16:00:00Z,28.8425,-94.2433,2.0,155.8345144,15.48717211,-99999.0,'11111222,11111222,99999999' 
TABS,ioos:station:wmo:42050:1,2008-08-02T16:30:00Z,28.8425,-94.2433,2.0,147.2197275,13.79713376,-99999.0,'11111222,11111222,99999999' 
TABS,ioos:station:wmo:42050:1,2008-08-02T17:00:00Z,28.8425,-94.2433,2.0,137.5719162,10.24215309,-99999.0,'11111222,11111222,99999999' 
TABS,ioos:station:wmo:42050:1,2008-08-02T17:30:00Z,28.8425,-94.2433,2.0,124.0165595,13.13828756,-99999.0,'11111222,11111222,99999999' 
TABS,ioos:station:wmo:42050:1,2008-08-02T18:00:00Z,28.8425,-94.2433,2.0,141.8879907,18.45433553,-99999.0,'11111222,11111222,99999999' 
TABS,ioos:station:wmo:42050:1,2008-08-02T18:30:00Z,28.8425,-94.2433,2.0,145.8340923,16.7025986,-99999.0,'11111222,11111222,99999999' 
TABS,ioos:station:wmo:42050:1,2008-08-02T19:00:00Z,28.8425,-94.2433,2.0,148.2575388,18.93176167,-99999.0,'11111222,11111222,99999999' 
TABS,ioos:station:wmo:42050:1,2008-08-02T19:30:00Z,28.8425,-94.2433,2.0,163.2069737,18.76001066,-99999.0,'11111222,11111222,99999999' 
TABS,ioos:station:wmo:42050:1,2008-08-02T20:00:00Z,28.8425,-94.2433,2.0,170.1375985,20.49283289,-99999.0,'11111222,11111222,99999999' 
TABS,ioos:station:wmo:42050:1,2008-08-02T20:30:00Z,28.8425,-94.2433,2.0,182.515855,23.46261921,-99999.0,'11111222,11111222,99999999' 
TABS,ioos:station:wmo:42050:1,2008-08-02T21:00:00Z,28.8425,-94.2433,2.0,185.316558,23.74214818,-99999.0,'11111222,11111222,99999999' 
TABS,ioos:station:wmo:42050:1,2008-08-02T21:30:00Z,28.8425,-94.2433,2.0,178.7348683,23.55574028,-99999.0,'11111222,11111222,99999999' 
TABS,ioos:station:wmo:42050:1,2008-08-02T22:00:00Z,28.8425,-94.2433,2.0,182.9722706,23.91217263,-99999.0,'11111222,11111222,99999999' 
TABS,ioos:station:wmo:42050:1,2008-08-02T22:30:00Z,28.8425,-94.2433,2.0,184.9100393,20.44503363,-99999.0,'11111222,11111222,99999999' 
TABS,ioos:station:wmo:42050:1,2008-08-02T23:00:00Z,28.8425,-94.2433,2.0,193.5984147,19.0541544,-99999.0,'11111222,11111222,99999999' 
TABS,ioos:station:wmo:42050:1,2008-08-02T23:30:00Z,28.8425,-94.2433,2.0,201.5863351,17.83059169,-99999.0,'11111222,11111222,99999999' 
TABS,ioos:station:wmo:42050:1,2008-08-03T00:00:00Z,28.8425,-94.2433,2.0,208.9496018,19.1304783,-99999.0,'11111222,11111222,99999999' 
TABS,ioos:station:wmo:42050:1,2008-08-03T00:30:00Z,28.8425,-94.2433,2.0,210.5468444,18.1604653,-99999.0,'11111222,11111222,99999999' 
TABS,ioos:station:wmo:42050:1,2008-08-03T01:00:00Z,28.8425,-94.2433,2.0,223.3924073,11.84870035,-99999.0,'11111222,11111222,99999999' 
TABS,ioos:station:wmo:42050:1,2008-08-03T01:30:00Z,28.8425,-94.2433,2.0,211.9815033,7.722085211,-99999.0,'11133222,11111222,99999999' 
TABS,ioos:station:wmo:42050:1,2008-08-03T02:00:00Z,28.8425,-94.2433,2.0,250.3398802,13.01890932,-99999.0,'11111222,11111222,99999999' 
TABS,ioos:station:wmo:42050:1,2008-08-03T02:30:00Z,28.8425,-94.2433,2.0,269.5466585,15.1804743,-99999.0,'11111222,11111222,99999999' 
TABS,ioos:station:wmo:42050:1,2008-08-03T03:00:00Z,28.8425,-94.2433,2.0,276.3688594,13.43289247,-99999.0,'11111222,11111222,99999999' 
TABS,ioos:station:wmo:42050:1,2008-08-03T03:30:00Z,28.8425,-94.2433,2.0,303.7145748,13.15194282,-99999.0,'11111222,11111222,99999999' 
TABS,ioos:station:wmo:42050:1,2008-08-03T04:00:00Z,28.8425,-94.2433,2.0,318.2133497,14.88678609,-99999.0,'11111222,11111222,99999999' 
TABS,ioos:station:wmo:42050:1,2008-08-03T04:30:00Z,28.8425,-94.2433,2.0,327.9546211,15.07741357,-99999.0,'11111222,11111222,99999999' 
TABS,ioos:station:wmo:42050:1,2008-08-03T05:00:00Z,28.8425,-94.2433,2.0,340.311456,17.63075722,-99999.0,'11111222,11111222,99999999' 
TABS,ioos:station:wmo:42050:1,2008-08-03T05:30:00Z,28.8425,-94.2433,2.0,350.9687702,19.23851346,-99999.0,'11111222,11111222,99999999' 
TABS,ioos:station:wmo:42050:1,2008-08-03T06:00:00Z,28.8425,-94.2433,2.0,358.4629844,21.24764693,-99999.0,'11111222,11111222,99999999' 
TABS,ioos:station:wmo:42050:1,2008-08-03T06:30:00Z,28.8425,-94.2433,2.0,1.329455894,22.41603221,-99999.0,'11111222,11111222,99999999' 
TABS,ioos:station:wmo:42050:1,2008-08-03T07:00:00Z,28.8425,-94.2433,2.0,8.379064725,21.82293518,-99999.0,'11111222,11111222,99999999' 
TABS,ioos:station:wmo:42050:1,2008-08-03T07:30:00Z,28.8425,-94.2433,2.0,14.42319361,21.19809661,-99999.0,'11111222,11111222,99999999' 
TABS,ioos:station:wmo:42050:1,2008-08-03T08:00:00Z,28.8425,-94.2433,2.0,26.07657585,20.45182143,-99999.0,'11111222,11111222,99999999' 
TABS,ioos:station:wmo:42050:1,2008-08-03T08:30:00Z,28.8425,-94.2433,2.0,42.2412783,17.77605412,-99999.0,'11111222,11111222,99999999' 
TABS,ioos:station:wmo:42050:1,2008-08-03T09:00:00Z,28.8425,-94.2433,2.0,52.06915503,17.06492602,-99999.0,'11111222,11111222,99999999' 
TABS,ioos:station:wmo:42050:1,2008-08-03T09:30:00Z,28.8425,-94.2433,2.0,65.23444203,16.80563001,-99999.0,'11111222,11111222,99999999' 
TABS,ioos:station:wmo:42050:1,2008-08-03T10:00:00Z,28.8425,-94.2433,2.0,72.05370608,20.02427027,-99999.0,'11111222,11111222,99999999' 
TABS,ioos:station:wmo:42050:1,2008-08-03T10:30:00Z,28.8425,-94.2433,2.0,82.78303921,18.54693775,-99999.0,'11111222,11111222,99999999' 
TABS,ioos:station:wmo:42050:1,2008-08-03T11:00:00Z,28.8425,-94.2433,2.0,91.24086687,11.08259897,-99999.0,'11111222,11111222,99999999' 
TABS,ioos:station:wmo:42050:1,2008-08-03T11:30:00Z,28.8425,-94.2433,2.0,99.9498816,13.71630417,-99999.0,'11111222,11111222,99999999' 
TABS,ioos:station:wmo:42050:1,2008-08-03T12:00:00Z,28.8425,-94.2433,2.0,115.4802307,18.89816129,-99999.0,'11111222,11111222,99999999' 
TABS,ioos:station:wmo:42050:1,2008-08-03T12:30:00Z,28.8425,-94.2433,2.0,140.7701824,13.50345141,-99999.0,'11111222,11111222,99999999' 
TABS,ioos:station:wmo:42050:1,2008-08-03T13:00:00Z,28.8425,-94.2433,2.0,164.7989124,24.10331927,-99999.0,'11111222,11111222,99999999' 
TABS,ioos:station:wmo:42050:1,2008-08-03T13:30:00Z,28.8425,-94.2433,2.0,158.2904591,19.65401995,-99999.0,'11111222,11111222,99999999' 
TABS,ioos:station:wmo:42050:1,2008-08-03T14:00:00Z,28.8425,-94.2433,2.0,160.4138365,23.29803854,-99999.0,'11111222,11111222,99999999' 
TABS,ioos:station:wmo:42050:1,2008-08-03T14:30:00Z,28.8425,-94.2433,2.0,159.0746085,21.61560779,-99999.0,'11111222,11111222,99999999' 
TABS,ioos:station:wmo:42050:1,2008-08-03T15:00:00Z,28.8425,-94.2433,2.0,147.2399287,18.11057426,-99999.0,'11111222,11111222,99999999' 
TABS,ioos:station:wmo:42050:1,2008-08-03T15:30:00Z,28.8425,-94.2433,2.0,143.1505535,16.70800108,-99999.0,'11111222,11111222,99999999' 
TABS,ioos:station:wmo:42050:1,2008-08-03T16:00:00Z,28.8425,-94.2433,2.0,126.0122785,11.22525724,-99999.0,'11111222,11111222,99999999' 
TABS,ioos:station:wmo:42050:1,2008-08-03T16:30:00Z,28.8425,-94.2433,2.0,123.3628557,6.800735254,-99999.0,'11133222,11111222,99999999' 
TABS,ioos:station:wmo:42050:1,2008-08-03T17:00:00Z,28.8425,-94.2433,2.0,113.3822737,4.913511982,-99999.0,'11133222,11111222,99999999' 
TABS,ioos:station:wmo:42050:1,2008-08-03T17:30:00Z,28.8425,-94.2433,2.0,98.36586656,3.09291125,-99999.0,'11133222,11111222,99999999' 
TABS,ioos:station:wmo:42050:1,2008-08-03T18:00:00Z,28.8425,-94.2433,2.0,119.394333,4.258192105,-99999.0,'11133222,11111222,99999999' 
TABS,ioos:station:wmo:42050:1,2008-08-03T18:30:00Z,28.8425,-94.2433,2.0,112.3021545,6.798566025,-99999.0,'11133222,11111222,99999999' 
TABS,ioos:station:wmo:42050:1,2008-08-03T19:00:00Z,28.8425,-94.2433,2.0,133.9722804,9.462610633,-99999.0,'11133222,11111222,99999999' 
TABS,ioos:station:wmo:42050:1,2008-08-03T19:30:00Z,28.8425,-94.2433,2.0,138.5706559,9.082741877,-99999.0,'11133222,11111222,99999999' 
TABS,ioos:station:wmo:42050:1,2008-08-03T20:00:00Z,28.8425,-94.2433,2.0,134.3771405,9.108073342,-99999.0,'11133222,11111222,99999999' 
TABS,ioos:station:wmo:42050:1,2008-08-03T20:30:00Z,28.8425,-94.2433,2.0,166.0467538,11.69508016,-99999.0,'11111222,11111222,99999999' 
TABS,ioos:station:wmo:42050:1,2008-08-03T21:00:00Z,28.8425,-94.2433,2.0,170.6259997,12.77052857,-99999.0,'11111222,11111222,99999999' 
TABS,ioos:station:wmo:42050:1,2008-08-03T21:30:00Z,28.8425,-94.2433,2.0,185.893305,14.02412564,-99999.0,'11111222,11111222,99999999' 
TABS,ioos:station:wmo:42050:1,2008-08-03T22:00:00Z,28.8425,-94.2433,2.0,183.2165097,15.5044284,-99999.0,'11111222,11111222,99999999' 
TABS,ioos:station:wmo:42050:1,2008-08-03T22:30:00Z,28.8425,-94.2433,2.0,186.186671,11.96971595,-99999.0,'11111222,11111222,99999999' 
TABS,ioos:station:wmo:42050:1,2008-08-03T23:00:00Z,28.8425,-94.2433,2.0,199.0932369,13.75681649,-99999.0,'11111222,11111222,99999999' 
TABS,ioos:station:wmo:42050:1,2008-08-03T23:30:00Z,28.8425,-94.2433,2.0,196.4514197,11.97006683,-99999.0,'11111222,11111222,99999999' 
TABS,ioos:station:wmo:42050:1,2008-08-04T00:00:00Z,28.8425,-94.2433,2.0,204.7234208,13.22198926,-99999.0,'11111222,11111222,99999999' 
TABS,ioos:station:wmo:42050:1,2008-08-04T00:30:00Z,28.8425,-94.2433,2.0,214.2842189,9.089251894,-99999.0,'11133222,11111222,99999999' 
TABS,ioos:station:wmo:42050:1,2008-08-04T01:00:00Z,28.8425,-94.2433,2.0,229.5151991,6.91575737,-99999.0,'11133222,11111222,99999999' 
TABS,ioos:station:wmo:42050:1,2008-08-04T01:30:00Z,28.8425,-94.2433,2.0,279.0821037,7.919273957,-99999.0,'11133222,11111222,99999999' 
TABS,ioos:station:wmo:42050:1,2008-08-04T02:00:00Z,28.8425,-94.2433,2.0,270.3348275,5.140087548,-99999.0,'11133222,11111222,99999999' 
TABS,ioos:station:wmo:42050:1,2008-08-04T02:30:00Z,28.8425,-94.2433,2.0,287.73634,7.517293396,-99999.0,'11133222,11111222,99999999' 
TABS,ioos:station:wmo:42050:1,2008-08-04T03:00:00Z,28.8425,-94.2433,2.0,315.8875667,6.39301181,-99999.0,'11133222,11111222,99999999' 
TABS,ioos:station:wmo:42050:1,2008-08-04T03:30:00Z,28.8425,-94.2433,2.0,334.1926918,7.442284595,-99999.0,'11133222,11111222,99999999' 
TABS,ioos:station:wmo:42050:1,2008-08-04T04:00:00Z,28.8425,-94.2433,2.0,334.0953437,9.316077501,-99999.0,'11133222,11111222,99999999' 
TABS,ioos:station:wmo:42050:1,2008-08-04T04:30:00Z,28.8425,-94.2433,2.0,340.5304191,11.73080134,-99999.0,'11111222,11111222,99999999' 
TABS,ioos:station:wmo:42050:1,2008-08-04T05:00:00Z,28.8425,-94.2433,2.0,350.0739882,16.64923121,-99999.0,'11111222,11111222,99999999' 
TABS,ioos:station:wmo:42050:1,2008-08-04T05:30:00Z,28.8425,-94.2433,2.0,353.0438923,16.4309525,-99999.0,'11111222,11111222,99999999' 
TABS,ioos:station:wmo:42050:1,2008-08-04T06:00:00Z,28.8425,-94.2433,2.0,1.336625603,15.8643153,-99999.0,'11111222,11111222,99999999' 
TABS,ioos:station:wmo:42050:1,2008-08-04T06:30:00Z,28.8425,-94.2433,2.0,359.9057672,18.20002473,-99999.0,'11111222,11144222,99999999' 
TABS,ioos:station:wmo:42050:1,2008-08-04T07:00:00Z,28.8425,-94.2433,2.0,4.706094965,20.59944174,-99999.0,'11111222,11111222,99999999' 
TABS,ioos:station:wmo:42050:1,2008-08-04T07:30:00Z,28.8425,-94.2433,2.0,6.166298072,18.89933861,-99999.0,'11111222,11111222,99999999' 
TABS,ioos:station:wmo:42050:1,2008-08-04T08:00:00Z,28.8425,-94.2433,2.0,1.084230352,17.44312185,-99999.0,'11111222,11111222,99999999' 
TABS,ioos:station:wmo:42050:1,2008-08-04T08:30:00Z,28.8425,-94.2433,2.0,2.824320239,16.43996654,-99999.0,'11111222,11111222,99999999' 
TABS,ioos:station:wmo:42050:1,2008-08-04T09:00:00Z,28.8425,-94.2433,2.0,8.768083517,18.04082592,-99999.0,'11111222,11111222,99999999' 
TABS,ioos:station:wmo:42050:1,2008-08-04T09:30:00Z,28.8425,-94.2433,2.0,5.619442081,16.85097623,-99999.0,'11111222,11111222,99999999' 
TABS,ioos:station:wmo:42050:1,2008-08-04T10:00:00Z,28.8425,-94.2433,2.0,15.8870553,14.79511406,-99999.0,'11111222,11111222,99999999' 
TABS,ioos:station:wmo:42050:1,2008-08-04T10:30:00Z,28.8425,-94.2433,2.0,22.51079482,11.70155973,-99999.0,'11111222,11111222,99999999' 
TABS,ioos:station:wmo:42050:1,2008-08-04T11:00:00Z,28.8425,-94.2433,2.0,49.84042465,7.458290689,-99999.0,'11133222,11111222,99999999' 
TABS,ioos:station:wmo:42050:1,2008-08-04T11:30:00Z,28.8425,-94.2433,2.0,359.7071407,3.910051151,-99999.0,'11133222,11144222,99999999' 
TABS,ioos:station:wmo:42050:1,2008-08-04T12:00:00Z,28.8425,-94.2433,2.0,337.9362974,3.647094734,-99999.0,'11133222,11111222,99999999' 
TABS,ioos:station:wmo:42050:1,2008-08-04T12:30:00Z,28.8425,-94.2433,2.0,284.7638551,4.395099544,-99999.0,'11133222,11111222,99999999' 
TABS,ioos:station:wmo:42050:1,2008-08-04T13:00:00Z,28.8425,-94.2433,2.0,273.1895494,3.415289153,-99999.0,'11133222,11111222,99999999' 
TABS,ioos:station:wmo:42050:1,2008-08-04T13:30:00Z,28.8425,-94.2433,2.0,300.2567873,4.167733197,-99999.0,'11133222,11111222,99999999' 
TABS,ioos:station:wmo:42050:1,2008-08-04T14:00:00Z,28.8425,-94.2433,2.0,272.1480013,3.20224921,-99999.0,'11133222,11111222,99999999' 
TABS,ioos:station:wmo:42050:1,2008-08-04T14:30:00Z,28.8425,-94.2433,2.0,245.4298309,5.651734247,-99999.0,'11133222,11111222,99999999' 
TABS,ioos:station:wmo:42050:1,2008-08-04T15:00:00Z,28.8425,-94.2433,2.0,265.5357383,8.094553725,-99999.0,'11133222,11111222,99999999' 
TABS,ioos:station:wmo:42050:1,2008-08-04T15:30:00Z,28.8425,-94.2433,2.0,272.3956324,10.28898926,-99999.0,'11111222,11111222,99999999' 
TABS,ioos:station:wmo:42050:1,2008-08-04T16:00:00Z,28.8425,-94.2433,2.0,280.0566737,10.30837039,-99999.0,'11111222,11111222,99999999' 